AAL2520 KDFW-KSLC

Flight info

Callsign AAL2520
Flight time 2h 44m
Altitude 38000
Route HUDAD2 HUDAD PNH ALS JNC J12 HELPR JAZZZ1
Aircraft A321/M-SDE3FGHIRWY/LB1

Departure

Time 2026-05-04 23:02
Airport Dallas Fort Worth International Airport (KDFW)

Arrival

Time 2026-05-05 01:47
Airport Salt Lake City International Airport (KSLC)
Time Latitude Longitude Altitude Speed Heading
2026-05-04 22:32 32.90186 -97.04292 596 ft 0 kts
2026-05-04 22:49 32.90177 -97.04294 596 ft 4 kts
2026-05-04 22:49 32.90155 -97.04298 596 ft 3 kts
2026-05-04 22:49 32.90133 -97.04301 596 ft 2 kts 27°
2026-05-04 22:49 32.90113 -97.04314 597 ft 2 kts 27°
2026-05-04 22:50 32.90111 -97.04315 597 ft 0 kts 27°
2026-05-04 22:54 32.90114 -97.04315 597 ft 1 kts
2026-05-04 22:55 32.90125 -97.04332 596 ft 7 kts 303°
2026-05-04 22:55 32.90134 -97.04403 596 ft 9 kts 270°
2026-05-04 22:55 32.90134 -97.04484 596 ft 10 kts 270°
2026-05-04 22:55 32.90135 -97.04571 597 ft 11 kts 270°
2026-05-04 22:56 32.90135 -97.04665 597 ft 12 kts 270°
2026-05-04 22:56 32.90160 -97.04753 597 ft 12 kts 332°
2026-05-04 22:56 32.90244 -97.04762 597 ft 13 kts 359°
2026-05-04 22:56 32.90335 -97.04763 597 ft 13 kts 360°
2026-05-04 22:57 32.90429 -97.04761 597 ft 14 kts
2026-05-04 22:57 32.90526 -97.04760 597 ft 14 kts
2026-05-04 22:57 32.90629 -97.04760 597 ft 15 kts
2026-05-04 22:57 32.90737 -97.04759 598 ft 16 kts
2026-05-04 22:58 32.90845 -97.04759 599 ft 15 kts
2026-05-04 22:58 32.90940 -97.04759 620 ft 12 kts
2026-05-04 22:58 32.91016 -97.04779 616 ft 11 kts 337°
2026-05-04 22:58 32.91089 -97.04793 607 ft 10 kts 359°
2026-05-04 22:59 32.91160 -97.04793 620 ft 10 kts
2026-05-04 22:59 32.91224 -97.04792 610 ft 9 kts
2026-05-04 22:59 32.91301 -97.04792 611 ft 12 kts
2026-05-04 22:59 32.91385 -97.04792 618 ft 13 kts
2026-05-04 23:00 32.91472 -97.04800 619 ft 10 kts 333°
2026-05-04 23:00 32.91493 -97.04867 612 ft 8 kts 274°
2026-05-04 23:00 32.91493 -97.04928 620 ft 7 kts 269°
2026-05-04 23:00 32.91492 -97.04985 619 ft 7 kts 270°
2026-05-04 23:01 32.91491 -97.05053 613 ft 7 kts 257°
2026-05-04 23:01 32.91452 -97.05075 621 ft 7 kts 179°
2026-05-04 23:01 32.91259 -97.05076 620 ft 59 kts 180°
2026-05-04 23:01 32.90619 -97.05078 602 ft 123 kts 180°
2026-05-04 23:02 32.89594 -97.05083 603 ft 170 kts 180°
2026-05-04 23:02 32.88377 -97.05082 1150 ft 173 kts 179°
2026-05-04 23:02 32.87187 -97.05096 1905 ft 171 kts 185°
2026-05-04 23:02 32.86014 -97.05375 2469 ft 177 kts 192°
2026-05-04 23:03 32.84753 -97.05757 2643 ft 197 kts 194°
2026-05-04 23:03 32.83348 -97.06200 2766 ft 221 kts 195°
2026-05-04 23:03 32.81811 -97.06697 3200 ft 233 kts 195°
2026-05-04 23:03 32.80258 -97.07206 3871 ft 236 kts 195°
2026-05-04 23:04 32.78707 -97.07863 4533 ft 239 kts 211°
2026-05-04 23:04 32.77529 -97.09261 5148 ft 245 kts 238°
2026-05-04 23:04 32.77000 -97.11212 5797 ft 252 kts 255°
2026-05-04 23:04 32.76660 -97.13266 6469 ft 255 kts 256°
2026-05-04 23:05 32.76590 -97.15403 7039 ft 267 kts 270°
2026-05-04 23:05 32.76738 -97.17624 7569 ft 272 kts 270°
2026-05-04 23:05 32.76887 -97.19878 8176 ft 275 kts 270°
2026-05-04 23:05 32.77033 -97.22155 8820 ft 276 kts 270°
2026-05-04 23:06 32.77373 -97.24412 9444 ft 282 kts 285°
2026-05-04 23:06 32.78217 -97.26536 10072 ft 286 kts 295°
2026-05-04 23:06 32.79172 -97.28655 10379 ft 299 kts 295°
2026-05-04 23:06 32.80177 -97.30907 10511 ft 317 kts 295°
2026-05-04 23:07 32.81235 -97.33286 10641 ft 334 kts 295°
2026-05-04 23:07 32.82335 -97.35759 10991 ft 341 kts 295°
2026-05-04 23:07 32.83438 -97.38229 11515 ft 344 kts 296°
2026-05-04 23:07 32.84558 -97.40739 12121 ft 343 kts 296°
2026-05-04 23:08 32.85678 -97.43251 12729 ft 344 kts 296°
2026-05-04 23:08 32.86799 -97.45767 13301 ft 345 kts 296°
2026-05-04 23:08 32.87924 -97.48293 13862 ft 346 kts 296°
2026-05-04 23:08 32.89050 -97.50828 14390 ft 348 kts 296°
2026-05-04 23:09 32.90181 -97.53380 14918 ft 350 kts 296°
2026-05-04 23:09 32.91318 -97.55950 15429 ft 351 kts 296°
2026-05-04 23:09 32.92459 -97.58528 15941 ft 353 kts 296°
2026-05-04 23:09 32.93604 -97.61122 16444 ft 355 kts 296°
2026-05-04 23:10 32.94752 -97.63725 16951 ft 356 kts 296°
2026-05-04 23:10 32.95908 -97.66342 17428 ft 358 kts 296°
2026-05-04 23:10 32.97068 -97.68970 17880 ft 360 kts 296°
2026-05-04 23:10 32.98218 -97.71576 18337 ft 361 kts 296°
2026-05-04 23:11 32.99374 -97.74236 18791 ft 362 kts 295°
2026-05-04 23:11 33.00457 -97.76948 19222 ft 364 kts 294°
2026-05-04 23:11 33.01489 -97.79704 19653 ft 365 kts 292°
2026-05-04 23:11 33.02500 -97.82479 20078 ft 366 kts 292°
2026-05-04 23:12 33.03509 -97.85266 20495 ft 367 kts 292°
2026-05-04 23:12 33.04533 -97.88058 20887 ft 368 kts 293°
2026-05-04 23:12 33.05569 -97.90856 21289 ft 370 kts 293°
2026-05-04 23:12 33.06615 -97.93661 21687 ft 370 kts 293°
2026-05-04 23:13 33.07665 -97.96470 22089 ft 371 kts 293°
2026-05-04 23:13 33.08721 -97.99286 22445 ft 373 kts 293°
2026-05-04 23:13 33.09764 -98.02079 22791 ft 375 kts 293°
2026-05-04 23:13 33.10824 -98.04924 23158 ft 376 kts 293°
2026-05-04 23:14 33.11887 -98.07776 23510 ft 377 kts 293°
2026-05-04 23:14 33.12950 -98.10633 23860 ft 377 kts 293°
2026-05-04 23:14 33.14013 -98.13504 24192 ft 379 kts 293°
2026-05-04 23:14 33.15081 -98.16385 24527 ft 380 kts 293°
2026-05-04 23:15 33.16152 -98.19272 24888 ft 380 kts 293°
2026-05-04 23:15 33.17226 -98.22161 25228 ft 381 kts 293°
2026-05-04 23:15 33.18301 -98.25052 25578 ft 381 kts 293°
2026-05-04 23:15 33.19378 -98.27946 25914 ft 381 kts 293°
2026-05-04 23:16 33.20452 -98.30843 26238 ft 382 kts 293°
2026-05-04 23:16 33.21514 -98.33708 26574 ft 382 kts 293°
2026-05-04 23:16 33.22590 -98.36611 26899 ft 382 kts 293°
2026-05-04 23:16 33.23668 -98.39516 27200 ft 383 kts 293°
2026-05-04 23:17 33.24748 -98.42431 27488 ft 384 kts 293°
2026-05-04 23:17 33.25824 -98.45347 27778 ft 384 kts 293°
2026-05-04 23:17 33.26899 -98.48264 28057 ft 384 kts 293°
2026-05-04 23:17 33.27974 -98.51181 28316 ft 383 kts 293°
2026-05-04 23:18 33.29047 -98.54096 28550 ft 384 kts 293°
2026-05-04 23:18 33.30123 -98.57019 28776 ft 384 kts 293°
2026-05-04 23:18 33.31197 -98.59941 28998 ft 384 kts 293°
2026-05-04 23:18 33.32272 -98.62862 29250 ft 383 kts 293°
2026-05-04 23:19 33.33328 -98.65726 29568 ft 381 kts 293°
2026-05-04 23:19 33.34394 -98.68617 29865 ft 378 kts 293°
2026-05-04 23:19 33.35450 -98.71488 30166 ft 376 kts 292°
2026-05-04 23:19 33.36497 -98.74344 30462 ft 374 kts 292°
2026-05-04 23:20 33.37536 -98.77184 30747 ft 372 kts 292°
2026-05-04 23:20 33.38566 -98.80008 31020 ft 370 kts 292°
2026-05-04 23:20 33.39592 -98.82824 31276 ft 368 kts 292°
2026-05-04 23:20 33.40614 -98.85626 31542 ft 366 kts 292°
2026-05-04 23:21 33.41633 -98.88413 31813 ft 365 kts 292°
2026-05-04 23:21 33.42645 -98.91186 32061 ft 363 kts 292°
2026-05-04 23:21 33.43651 -98.93952 32315 ft 361 kts 292°
2026-05-04 23:21 33.44633 -98.96665 32564 ft 359 kts 292°
2026-05-04 23:22 33.45626 -98.99404 32800 ft 358 kts 292°
2026-05-04 23:22 33.46619 -99.02133 33023 ft 357 kts 292°
2026-05-04 23:22 33.47607 -99.04849 33270 ft 355 kts 292°
2026-05-04 23:22 33.48589 -99.07552 33496 ft 353 kts 292°
2026-05-04 23:23 33.49567 -99.10244 33719 ft 352 kts 292°
2026-05-04 23:23 33.50538 -99.12926 33932 ft 350 kts 292°
2026-05-04 23:23 33.51505 -99.15598 34149 ft 349 kts 292°
2026-05-04 23:23 33.52466 -99.18262 34356 ft 348 kts 292°
2026-05-04 23:24 33.53426 -99.20916 34541 ft 347 kts 292°
2026-05-04 23:24 33.54385 -99.23570 34717 ft 346 kts 292°
2026-05-04 23:24 33.55341 -99.26217 34897 ft 346 kts 292°
2026-05-04 23:24 33.56296 -99.28863 35068 ft 346 kts 292°
2026-05-04 23:25 33.57237 -99.31469 35235 ft 345 kts 292°
2026-05-04 23:25 33.58186 -99.34110 35402 ft 344 kts 292°
2026-05-04 23:25 33.59130 -99.36744 35583 ft 344 kts 292°
2026-05-04 23:25 33.60072 -99.39375 35756 ft 343 kts 292°
2026-05-04 23:26 33.61039 -99.41988 35916 ft 343 kts 295°
2026-05-04 23:26 33.62335 -99.44398 36061 ft 347 kts 304°
2026-05-04 23:26 33.63932 -99.46585 36184 ft 348 kts 306°
2026-05-04 23:26 33.65539 -99.48756 36319 ft 348 kts 305°
2026-05-04 23:27 33.67145 -99.50930 36435 ft 348 kts 305°
2026-05-04 23:27 33.68747 -99.53104 36557 ft 347 kts 305°
2026-05-04 23:27 33.70341 -99.55275 36706 ft 346 kts 305°
2026-05-04 23:27 33.71932 -99.57440 36892 ft 344 kts 305°
2026-05-04 23:28 33.73490 -99.59557 37080 ft 342 kts 305°
2026-05-04 23:28 33.75059 -99.61687 37260 ft 339 kts 305°
2026-05-04 23:28 33.76617 -99.63807 37423 ft 337 kts 305°
2026-05-04 23:28 33.78166 -99.65921 37553 ft 336 kts 305°
2026-05-04 23:29 33.79708 -99.68029 37688 ft 335 kts 304°
2026-05-04 23:29 33.81246 -99.70132 37726 ft 335 kts 304°
2026-05-04 23:29 33.84326 -99.74338 37716 ft 335 kts 304°
2026-05-04 23:30 33.87398 -99.78542 37710 ft 335 kts 304°
2026-05-04 23:30 33.90468 -99.82745 37711 ft 334 kts 304°
2026-05-04 23:31 33.93512 -99.86917 37722 ft 334 kts 304°
2026-05-04 23:31 33.96581 -99.91123 37727 ft 334 kts 304°
2026-05-04 23:32 33.99649 -99.95338 37730 ft 335 kts 304°
2026-05-04 23:32 34.02718 -99.99561 37733 ft 335 kts 304°
2026-05-04 23:33 34.05785 -100.03788 37733 ft 335 kts 304°
2026-05-04 23:33 34.08854 -100.08021 37731 ft 335 kts 304°
2026-05-04 23:34 34.11921 -100.12254 37731 ft 335 kts 304°
2026-05-04 23:34 34.14989 -100.16498 37735 ft 335 kts 304°
2026-05-04 23:35 34.18058 -100.20740 37735 ft 335 kts 304°
2026-05-04 23:35 34.21104 -100.24957 37732 ft 335 kts 304°
2026-05-04 23:36 34.24167 -100.29204 37733 ft 335 kts 304°
2026-05-04 23:36 34.27222 -100.33461 37736 ft 335 kts 304°
2026-05-04 23:37 34.30275 -100.37708 37731 ft 334 kts 304°
2026-05-04 23:37 34.33326 -100.41954 37733 ft 334 kts 304°
2026-05-04 23:38 34.36378 -100.46199 37735 ft 334 kts 304°
2026-05-04 23:38 34.39399 -100.50422 37740 ft 334 kts 304°
2026-05-04 23:39 34.42434 -100.54674 37736 ft 334 kts 304°
2026-05-04 23:39 34.45475 -100.58916 37734 ft 333 kts 304°
2026-05-04 23:40 34.48515 -100.63163 37729 ft 333 kts 304°
2026-05-04 23:40 34.51546 -100.67415 37733 ft 333 kts 304°
2026-05-04 23:41 34.54549 -100.71639 37733 ft 333 kts 304°
2026-05-04 23:41 34.57573 -100.75900 37735 ft 333 kts 304°
2026-05-04 23:42 34.60598 -100.80155 37738 ft 333 kts 304°
2026-05-04 23:42 34.63625 -100.84409 37744 ft 333 kts 304°
2026-05-04 23:43 34.66644 -100.88672 37745 ft 333 kts 304°
2026-05-04 23:43 34.69667 -100.92941 37747 ft 333 kts 304°
2026-05-04 23:44 34.72690 -100.97216 37755 ft 333 kts 304°
2026-05-04 23:44 34.75688 -101.01468 37763 ft 333 kts 303°
2026-05-04 23:45 34.78704 -101.05740 37770 ft 333 kts 303°
2026-05-04 23:45 34.81715 -101.10022 37775 ft 333 kts 303°
2026-05-04 23:46 34.84728 -101.14304 37777 ft 333 kts 303°
2026-05-04 23:46 34.87738 -101.18586 37779 ft 333 kts 303°
2026-05-04 23:47 34.90747 -101.22868 37782 ft 333 kts 303°
2026-05-04 23:47 34.93748 -101.27158 37784 ft 332 kts 303°
2026-05-04 23:48 34.96748 -101.31447 37786 ft 332 kts 303°
2026-05-04 23:48 34.99728 -101.35709 37787 ft 332 kts 303°
2026-05-04 23:49 35.02726 -101.39997 37788 ft 332 kts 303°
2026-05-04 23:49 35.05721 -101.44293 37788 ft 332 kts 303°
2026-05-04 23:50 35.08717 -101.48587 37786 ft 332 kts 303°
2026-05-04 23:50 35.11704 -101.52881 37791 ft 332 kts 303°
2026-05-04 23:51 35.14692 -101.57184 37794 ft 332 kts 303°
2026-05-04 23:51 35.17678 -101.61480 37796 ft 331 kts 303°
2026-05-04 23:52 35.20633 -101.65750 37798 ft 331 kts 303°
2026-05-04 23:52 35.23587 -101.70070 37798 ft 328 kts 299°
2026-05-04 23:53 35.26120 -101.74684 37800 ft 327 kts 298°
2026-05-04 23:53 35.28640 -101.79307 37800 ft 327 kts 297°
2026-05-04 23:54 35.31155 -101.83938 37799 ft 326 kts 297°
2026-05-04 23:54 35.33660 -101.88570 37799 ft 326 kts 297°
2026-05-04 23:55 35.36150 -101.93168 37798 ft 326 kts 297°
2026-05-04 23:56 35.39903 -102.00119 37796 ft 326 kts 297°
2026-05-04 23:56 35.42409 -102.04758 37793 ft 327 kts 297°
2026-05-04 23:57 35.44919 -102.09406 37793 ft 327 kts 297°
2026-05-04 23:57 35.47426 -102.14062 37793 ft 327 kts 297°
2026-05-04 23:58 35.49930 -102.18716 37794 ft 327 kts 297°
2026-05-04 23:58 35.52429 -102.23374 37796 ft 327 kts 297°
2026-05-04 23:59 35.54913 -102.28008 37797 ft 327 kts 297°
2026-05-04 23:59 35.57410 -102.32676 37797 ft 327 kts 297°
2026-05-05 00:00 35.59909 -102.37346 37796 ft 327 kts 297°
2026-05-05 00:00 35.62405 -102.42019 37797 ft 327 kts 297°
2026-05-05 00:01 35.64896 -102.46689 37796 ft 327 kts 297°
2026-05-05 00:01 35.67387 -102.51364 37794 ft 327 kts 297°
2026-05-05 00:02 35.69854 -102.56012 37793 ft 327 kts 297°
2026-05-05 00:02 35.72340 -102.60686 37795 ft 327 kts 297°
2026-05-05 00:03 35.74826 -102.65369 37797 ft 327 kts 296°
2026-05-05 00:03 35.76893 -102.69266 37794 ft 327 kts 296°
2026-05-05 00:04 35.79384 -102.73963 37795 ft 328 kts 296°
2026-05-05 00:04 35.81870 -102.78673 37797 ft 328 kts 296°
2026-05-05 00:05 35.84357 -102.83389 37797 ft 328 kts 296°
2026-05-05 00:05 35.86849 -102.88113 37795 ft 329 kts 296°
2026-05-05 00:06 35.89343 -102.92851 37795 ft 330 kts 296°
2026-05-05 00:06 35.91839 -102.97598 37798 ft 330 kts 296°
2026-05-05 00:07 35.94334 -103.02355 37798 ft 330 kts 296°
2026-05-05 00:07 35.96812 -103.07092 37798 ft 331 kts 296°
2026-05-05 00:08 35.99312 -103.11872 37799 ft 332 kts 295°
2026-05-05 00:08 36.01820 -103.16659 37803 ft 332 kts 295°
2026-05-05 00:09 36.04327 -103.21453 37815 ft 332 kts 295°
2026-05-05 00:09 36.06821 -103.26244 37820 ft 331 kts 295°
2026-05-05 00:10 36.09292 -103.30998 37822 ft 330 kts 295°
2026-05-05 00:10 36.11775 -103.35765 37826 ft 329 kts 295°
2026-05-05 00:11 36.14249 -103.40519 37827 ft 328 kts 295°
2026-05-05 00:11 36.16715 -103.45264 37827 ft 328 kts 295°
2026-05-05 00:12 36.19170 -103.50017 37827 ft 328 kts 295°
2026-05-05 00:12 36.21603 -103.54745 37828 ft 327 kts 295°
2026-05-05 00:13 36.24052 -103.59497 37826 ft 327 kts 295°
2026-05-05 00:13 36.26502 -103.64249 37832 ft 327 kts 295°
2026-05-05 00:14 36.28956 -103.69003 37838 ft 327 kts 295°
2026-05-05 00:14 36.31403 -103.73759 37843 ft 327 kts 295°
2026-05-05 00:15 36.33847 -103.78519 37846 ft 327 kts 295°
2026-05-05 00:15 36.36267 -103.83252 37849 ft 327 kts 295°
2026-05-05 00:16 36.38709 -103.88019 37855 ft 327 kts 295°
2026-05-05 00:16 36.41152 -103.92785 37857 ft 327 kts 295°
2026-05-05 00:17 36.43588 -103.97554 37863 ft 327 kts 295°
2026-05-05 00:17 36.46018 -104.02321 37879 ft 326 kts 295°
2026-05-05 00:18 36.48422 -104.07062 37879 ft 327 kts 295°
2026-05-05 00:18 36.50846 -104.11837 37882 ft 327 kts 295°
2026-05-05 00:19 36.53277 -104.16611 37887 ft 327 kts 295°
2026-05-05 00:19 36.55708 -104.21391 37891 ft 327 kts 295°
2026-05-05 00:20 36.58133 -104.26181 37894 ft 327 kts 295°
2026-05-05 00:20 36.60537 -104.30942 37897 ft 327 kts 294°
2026-05-05 00:21 36.62954 -104.35742 37894 ft 327 kts 294°
2026-05-05 00:21 36.65373 -104.40545 37889 ft 328 kts 295°
2026-05-05 00:22 36.67800 -104.45350 37892 ft 328 kts 295°
2026-05-05 00:22 36.70222 -104.50159 37889 ft 328 kts 294°
2026-05-05 00:23 36.72639 -104.54973 37887 ft 328 kts 294°
2026-05-05 00:23 36.75038 -104.59758 37885 ft 328 kts 294°
2026-05-05 00:24 36.77454 -104.64584 37883 ft 328 kts 294°
2026-05-05 00:24 36.79865 -104.69421 37888 ft 328 kts 294°
2026-05-05 00:25 36.82275 -104.74260 37896 ft 328 kts 294°
2026-05-05 00:25 36.84689 -104.79106 37904 ft 329 kts 294°
2026-05-05 00:26 36.87088 -104.83928 37915 ft 329 kts 294°
2026-05-05 00:26 36.89497 -104.88784 37931 ft 329 kts 294°
2026-05-05 00:27 36.91915 -104.93652 37941 ft 330 kts 294°
2026-05-05 00:27 36.94331 -104.98527 37950 ft 330 kts 294°
2026-05-05 00:28 36.96743 -105.03406 37974 ft 330 kts 294°
2026-05-05 00:28 36.99155 -105.08289 37992 ft 330 kts 294°
2026-05-05 00:29 37.01571 -105.13171 38005 ft 330 kts 294°
2026-05-05 00:29 37.03983 -105.18068 38018 ft 331 kts 294°
2026-05-05 00:30 37.06370 -105.22936 38035 ft 331 kts 294°
2026-05-05 00:30 37.08783 -105.27853 38047 ft 332 kts 294°
2026-05-05 00:31 37.11201 -105.32776 38062 ft 332 kts 294°
2026-05-05 00:31 37.13612 -105.37697 38080 ft 331 kts 294°
2026-05-05 00:32 37.16019 -105.42621 38079 ft 331 kts 294°
2026-05-05 00:32 37.18419 -105.47546 38081 ft 331 kts 294°
2026-05-05 00:33 37.20821 -105.52475 38079 ft 331 kts 294°
2026-05-05 00:33 37.23207 -105.57372 38074 ft 331 kts 294°
2026-05-05 00:34 37.25603 -105.62300 38065 ft 331 kts 294°
2026-05-05 00:34 37.28000 -105.67233 38054 ft 331 kts 294°
2026-05-05 00:35 37.30394 -105.72174 38042 ft 331 kts 293°
2026-05-05 00:35 37.32780 -105.77117 38021 ft 331 kts 293°
2026-05-05 00:36 37.35190 -105.81998 38003 ft 334 kts 298°
2026-05-05 00:36 37.38002 -105.86674 37997 ft 335 kts 297°
2026-05-05 00:37 37.40806 -105.91366 37990 ft 336 kts 297°
2026-05-05 00:37 37.43618 -105.96063 37987 ft 336 kts 297°
2026-05-05 00:38 37.46433 -106.00764 37988 ft 336 kts 297°
2026-05-05 00:38 37.49245 -106.05470 37990 ft 336 kts 297°
2026-05-05 00:39 37.52037 -106.10155 37995 ft 337 kts 297°
2026-05-05 00:39 37.54846 -106.14876 38005 ft 337 kts 297°
2026-05-05 00:40 37.57654 -106.19603 38017 ft 337 kts 297°
2026-05-05 00:40 37.60461 -106.24336 38023 ft 337 kts 297°
2026-05-05 00:41 37.63267 -106.29066 38023 ft 337 kts 297°
2026-05-05 00:41 37.66070 -106.33804 38025 ft 337 kts 297°
2026-05-05 00:42 37.68853 -106.38514 38022 ft 337 kts 297°
2026-05-05 00:42 37.71653 -106.43254 38021 ft 337 kts 297°
2026-05-05 00:43 37.74445 -106.47994 38024 ft 336 kts 297°
2026-05-05 00:43 37.77240 -106.52742 38029 ft 337 kts 297°
2026-05-05 00:44 37.80036 -106.57498 38034 ft 337 kts 297°
2026-05-05 00:44 37.82830 -106.62256 38041 ft 337 kts 297°
2026-05-05 00:45 37.85610 -106.66986 38040 ft 338 kts 297°
2026-05-05 00:45 37.88402 -106.71769 38045 ft 338 kts 296°
2026-05-05 00:46 37.91193 -106.76559 38049 ft 338 kts 296°
2026-05-05 00:46 37.93994 -106.81344 38050 ft 338 kts 296°
2026-05-05 00:47 37.96793 -106.86139 38061 ft 339 kts 297°
2026-05-05 00:47 37.99585 -106.90954 38068 ft 339 kts 296°
2026-05-05 00:48 38.02362 -106.95732 38082 ft 339 kts 296°
2026-05-05 00:48 38.05158 -107.00541 38067 ft 338 kts 296°
2026-05-05 00:49 38.07934 -107.05333 38065 ft 336 kts 296°
2026-05-05 00:49 38.10698 -107.10118 38059 ft 336 kts 296°
2026-05-05 00:50 38.13458 -107.14900 38057 ft 336 kts 296°
2026-05-05 00:50 38.16214 -107.19683 38055 ft 336 kts 295°
2026-05-05 00:51 38.18969 -107.24467 38051 ft 335 kts 296°
2026-05-05 00:51 38.21702 -107.29213 38048 ft 335 kts 295°
2026-05-05 00:52 38.24450 -107.33996 38047 ft 335 kts 295°
2026-05-05 00:52 38.27201 -107.38791 38043 ft 336 kts 295°
2026-05-05 00:53 38.29948 -107.43589 38037 ft 335 kts 295°
2026-05-05 00:53 38.32693 -107.48393 38033 ft 335 kts 295°
2026-05-05 00:54 38.35428 -107.53198 38032 ft 336 kts 295°
2026-05-05 00:54 38.38150 -107.57978 38028 ft 335 kts 295°
2026-05-05 00:55 38.40892 -107.62781 38019 ft 335 kts 295°
2026-05-05 00:55 38.43634 -107.67598 38010 ft 335 kts 295°
2026-05-05 00:56 38.46362 -107.72409 37999 ft 335 kts 295°
2026-05-05 00:56 38.49089 -107.77218 37990 ft 334 kts 295°
2026-05-05 00:57 38.51815 -107.82033 37982 ft 334 kts 295°
2026-05-05 00:57 38.54531 -107.86848 37960 ft 334 kts 295°
2026-05-05 00:58 38.57240 -107.91669 37964 ft 334 kts 295°
2026-05-05 00:58 38.59938 -107.96459 37965 ft 334 kts 295°
2026-05-05 00:59 38.62657 -108.01282 37955 ft 335 kts 295°
2026-05-05 00:59 38.65377 -108.06120 37952 ft 335 kts 294°
2026-05-05 01:00 38.68101 -108.10972 37940 ft 336 kts 294°
2026-05-05 01:00 38.70829 -108.15844 37930 ft 337 kts 294°
2026-05-05 01:01 38.73559 -108.20726 37926 ft 337 kts 294°
2026-05-05 01:01 38.76292 -108.25622 37918 ft 339 kts 294°
2026-05-05 01:02 38.79036 -108.30538 37917 ft 340 kts 294°
2026-05-05 01:02 38.81765 -108.35431 37911 ft 339 kts 294°
2026-05-05 01:03 38.84506 -108.40363 37909 ft 340 kts 294°
2026-05-05 01:03 38.87240 -108.45308 37904 ft 340 kts 294°
2026-05-05 01:04 38.89978 -108.50257 37901 ft 340 kts 294°
2026-05-05 01:04 38.94093 -108.57686 37901 ft 341 kts 294°
2026-05-05 01:05 38.96833 -108.62649 37903 ft 340 kts 294°
2026-05-05 01:05 38.99574 -108.67626 37909 ft 342 kts 294°
2026-05-05 01:06 39.02321 -108.72614 37916 ft 342 kts 294°
2026-05-05 01:06 39.05051 -108.77583 37929 ft 343 kts 294°
2026-05-05 01:07 39.07425 -108.82842 37957 ft 338 kts 288°
2026-05-05 01:07 39.09588 -108.88194 38003 ft 337 kts 287°
2026-05-05 01:08 39.11746 -108.93525 38067 ft 336 kts 287°
2026-05-05 01:08 39.13905 -108.98860 38076 ft 336 kts 287°
2026-05-05 01:09 39.16042 -109.04152 38071 ft 335 kts 287°
2026-05-05 01:09 39.18184 -109.09476 38063 ft 335 kts 287°
2026-05-05 01:10 39.20332 -109.14810 38056 ft 335 kts 287°
2026-05-05 01:10 39.22483 -109.20139 38046 ft 336 kts 287°
2026-05-05 01:11 39.24619 -109.25498 38038 ft 337 kts 287°
2026-05-05 01:11 39.26764 -109.30869 38030 ft 337 kts 287°
2026-05-05 01:12 39.28901 -109.36222 38022 ft 338 kts 287°
2026-05-05 01:12 39.31052 -109.41611 37888 ft 337 kts 287°
2026-05-05 01:13 39.32123 -109.44296 37317 ft 337 kts 286°
2026-05-05 01:13 39.33195 -109.46991 36685 ft 338 kts 287°
2026-05-05 01:13 39.34272 -109.49706 36009 ft 341 kts 287°
2026-05-05 01:13 39.35355 -109.52443 35278 ft 344 kts 287°
2026-05-05 01:14 39.36453 -109.55220 34453 ft 350 kts 288°
2026-05-05 01:14 39.37570 -109.58048 33596 ft 356 kts 288°
2026-05-05 01:14 39.38706 -109.60927 32691 ft 364 kts 289°
2026-05-05 01:14 39.39864 -109.63858 32157 ft 370 kts 290°
2026-05-05 01:15 39.41049 -109.66864 31967 ft 380 kts 291°
2026-05-05 01:15 39.42243 -109.69891 31933 ft 385 kts 291°
2026-05-05 01:15 39.44703 -109.76102 31928 ft 389 kts 291°
2026-05-05 01:16 39.47173 -109.82332 31864 ft 390 kts 291°
2026-05-05 01:16 39.49632 -109.88592 31862 ft 390 kts 291°
2026-05-05 01:17 39.52086 -109.94876 31856 ft 391 kts 291°
2026-05-05 01:17 39.54542 -110.01161 31860 ft 391 kts 291°
2026-05-05 01:18 39.57005 -110.07468 31874 ft 393 kts 291°
2026-05-05 01:18 39.59449 -110.13751 31887 ft 392 kts 291°
2026-05-05 01:19 39.61903 -110.20063 31887 ft 392 kts 291°
2026-05-05 01:19 39.64356 -110.26382 31896 ft 392 kts 291°
2026-05-05 01:20 39.66805 -110.32714 31908 ft 393 kts 291°
2026-05-05 01:20 39.69257 -110.39059 31906 ft 394 kts 291°
2026-05-05 01:21 39.71710 -110.45416 31908 ft 393 kts 291°
2026-05-05 01:21 39.74148 -110.51776 31907 ft 393 kts 291°
2026-05-05 01:22 39.76566 -110.58093 31904 ft 393 kts 291°
2026-05-05 01:22 39.79005 -110.64469 31907 ft 394 kts 290°
2026-05-05 01:23 39.81448 -110.70865 31844 ft 396 kts 290°
2026-05-05 01:23 39.82673 -110.74069 31284 ft 395 kts 291°
2026-05-05 01:23 39.83891 -110.77249 30768 ft 390 kts 291°
2026-05-05 01:24 39.84689 -110.79336 30420 ft 387 kts 291°
2026-05-05 01:24 39.86281 -110.83506 29709 ft 382 kts 292°
2026-05-05 01:24 39.87059 -110.85554 29363 ft 380 kts 292°
2026-05-05 01:24 39.88592 -110.89599 28680 ft 374 kts 292°
2026-05-05 01:25 39.89734 -110.92622 28183 ft 369 kts 292°
2026-05-05 01:25 39.90860 -110.95605 27688 ft 366 kts 292°
2026-05-05 01:25 39.91618 -110.97609 27356 ft 364 kts 293°
2026-05-05 01:25 39.92716 -111.00520 26887 ft 363 kts 293°
2026-05-05 01:26 39.93826 -111.03470 26397 ft 362 kts 293°
2026-05-05 01:26 39.94936 -111.06415 25930 ft 362 kts 294°
2026-05-05 01:26 39.96046 -111.09358 25476 ft 362 kts 294°
2026-05-05 01:26 39.97156 -111.12302 25019 ft 362 kts 294°
2026-05-05 01:27 39.98268 -111.15248 24568 ft 362 kts 294°
2026-05-05 01:27 39.99377 -111.18198 24124 ft 362 kts 294°
2026-05-05 01:27 40.00482 -111.21146 23689 ft 361 kts 295°
2026-05-05 01:27 40.01584 -111.24094 23279 ft 362 kts 295°
2026-05-05 01:28 40.02689 -111.27048 22859 ft 362 kts 295°
2026-05-05 01:28 40.03793 -111.29994 22448 ft 361 kts 295°
2026-05-05 01:28 40.04893 -111.32927 22036 ft 359 kts 295°
2026-05-05 01:28 40.05985 -111.35852 21630 ft 358 kts 295°
2026-05-05 01:29 40.07069 -111.38765 21224 ft 356 kts 295°
2026-05-05 01:29 40.08153 -111.41671 20817 ft 355 kts 295°
2026-05-05 01:29 40.09231 -111.44563 20396 ft 354 kts 294°
2026-05-05 01:29 40.10289 -111.47405 19982 ft 352 kts 294°
2026-05-05 01:30 40.11353 -111.50276 19557 ft 350 kts 294°
2026-05-05 01:30 40.12413 -111.53137 19117 ft 348 kts 294°
2026-05-05 01:30 40.13458 -111.55962 18735 ft 343 kts 294°
2026-05-05 01:30 40.14512 -111.58811 18656 ft 358 kts 294°
2026-05-05 01:31 40.15611 -111.61787 18511 ft 366 kts 294°
2026-05-05 01:31 40.16722 -111.64791 18356 ft 368 kts 294°
2026-05-05 01:31 40.17836 -111.67808 18194 ft 368 kts 294°
2026-05-05 01:31 40.18949 -111.70821 17940 ft 367 kts 294°
2026-05-05 01:32 40.20060 -111.73824 17688 ft 367 kts 294°
2026-05-05 01:32 40.21168 -111.76823 17438 ft 365 kts 294°
2026-05-05 01:32 40.22268 -111.79810 17187 ft 364 kts 294°
2026-05-05 01:32 40.23366 -111.82790 16934 ft 363 kts 294°
2026-05-05 01:33 40.24457 -111.85756 17011 ft 362 kts 294°
2026-05-05 01:33 40.25547 -111.88734 17051 ft 363 kts 294°
2026-05-05 01:33 40.26753 -111.91641 17051 ft 364 kts 303°
2026-05-05 01:33 40.28359 -111.94153 17039 ft 367 kts 314°
2026-05-05 01:34 40.30352 -111.96234 16664 ft 365 kts 327°
2026-05-05 01:34 40.32552 -111.97887 16353 ft 364 kts 329°
2026-05-05 01:34 40.34751 -111.99524 16036 ft 363 kts 329°
2026-05-05 01:34 40.36935 -112.01165 15724 ft 361 kts 329°
2026-05-05 01:35 40.39108 -112.02808 15419 ft 359 kts 329°
2026-05-05 01:35 40.41327 -112.04291 15114 ft 358 kts 338°
2026-05-05 01:35 40.43717 -112.05169 14790 ft 357 kts 350°
2026-05-05 01:35 40.46175 -112.05520 14436 ft 355 kts 354°
2026-05-05 01:36 40.48628 -112.05838 14082 ft 353 kts 354°
2026-05-05 01:36 40.51062 -112.06161 13752 ft 351 kts 354°
2026-05-05 01:36 40.53483 -112.06485 13412 ft 349 kts 354°
2026-05-05 01:36 40.55851 -112.06803 13077 ft 346 kts 354°
2026-05-05 01:37 40.58241 -112.07124 12742 ft 344 kts 354°
2026-05-05 01:37 40.60618 -112.07440 12409 ft 342 kts 354°
2026-05-05 01:37 40.62981 -112.07756 12080 ft 340 kts 354°
2026-05-05 01:37 40.65331 -112.08059 11900 ft 339 kts 354°
2026-05-05 01:38 40.67677 -112.08336 11798 ft 339 kts 354°
2026-05-05 01:38 40.70023 -112.08601 11681 ft 338 kts 354°
2026-05-05 01:38 40.72367 -112.08868 11551 ft 338 kts 354°
2026-05-05 01:38 40.74676 -112.09130 11415 ft 326 kts 354°
2026-05-05 01:39 40.76884 -112.09384 11286 ft 312 kts 354°
2026-05-05 01:39 40.79007 -112.09635 11121 ft 300 kts 354°
2026-05-05 01:39 40.81050 -112.09877 10961 ft 289 kts 354°
2026-05-05 01:39 40.83018 -112.10112 10792 ft 280 kts 354°
2026-05-05 01:40 40.84908 -112.10342 10590 ft 275 kts 354°
2026-05-05 01:40 40.86812 -112.10573 10319 ft 274 kts 354°
2026-05-05 01:40 40.88700 -112.10801 10043 ft 271 kts 354°
2026-05-05 01:40 40.90563 -112.11022 9768 ft 267 kts 354°
2026-05-05 01:41 40.92396 -112.11243 9490 ft 263 kts 354°
2026-05-05 01:41 40.94204 -112.11465 9213 ft 260 kts 353°
2026-05-05 01:41 40.95996 -112.11686 9039 ft 258 kts 354°
2026-05-05 01:41 40.97767 -112.11452 8903 ft 257 kts 20°
2026-05-05 01:42 40.99204 -112.10145 8723 ft 251 kts 51°
2026-05-05 01:42 41.00075 -112.08154 8552 ft 252 kts 68°
2026-05-05 01:42 41.00542 -112.05936 8369 ft 251 kts 88°
2026-05-05 01:42 41.00146 -112.03734 7964 ft 252 kts 125°
2026-05-05 01:43 40.98873 -112.02262 7719 ft 241 kts 158°
2026-05-05 01:43 40.95494 -112.01640 7109 ft 229 kts 176°
2026-05-05 01:43 40.93917 -112.01463 6806 ft 225 kts 176°
2026-05-05 01:44 40.92398 -112.01286 6520 ft 212 kts 176°
2026-05-05 01:44 40.90975 -112.01119 6248 ft 199 kts 176°
2026-05-05 01:44 40.89638 -112.00962 5998 ft 187 kts 176°
2026-05-05 01:44 40.88357 -112.00812 5738 ft 180 kts 178°
2026-05-05 01:45 40.87164 -112.00673 5511 ft 165 kts 178°
2026-05-05 01:45 40.86065 -112.00544 5299 ft 154 kts 178°
2026-05-05 01:45 40.85022 -112.00422 5100 ft 148 kts 176°
2026-05-05 01:45 40.83988 -112.00301 4897 ft 153 kts 171°
2026-05-05 01:46 40.82916 -112.00177 4688 ft 155 kts 171°
2026-05-05 01:46 40.81850 -112.00060 4464 ft 153 kts 172°
2026-05-05 01:46 40.80790 -111.99936 4296 ft 153 kts 172°
2026-05-05 01:46 40.79773 -111.99811 4230 ft 131 kts 175°
2026-05-05 01:47 40.79034 -111.99727 4234 ft 82 kts 175°
2026-05-05 01:47 40.78662 -111.99681 4233 ft 33 kts 169°
2026-05-05 01:47 40.78504 -111.99595 4231 ft 18 kts 144°
2026-05-05 01:47 40.78449 -111.99526 4230 ft 3 kts 131°
2026-05-05 01:48 40.78441 -111.99510 4231 ft 2 kts 123°
2026-05-05 01:48 40.78436 -111.99497 4231 ft 3 kts 115°
2026-05-05 01:48 40.78433 -111.99486 4231 ft 1 kts 111°
2026-05-05 01:48 40.78424 -111.99447 4230 ft 6 kts 102°
2026-05-05 01:49 40.78422 -111.99388 4231 ft 5 kts 86°
2026-05-05 01:49 40.78448 -111.99350 4231 ft 7 kts 22°
2026-05-05 01:49 40.78502 -111.99350 4231 ft 9 kts 355°
2026-05-05 01:49 40.78573 -111.99358 4231 ft 12 kts 355°
2026-05-05 01:50 40.78633 -111.99358 4231 ft 5 kts 32°
2026-05-05 01:50 40.78651 -111.99302 4231 ft 8 kts 81°
2026-05-05 01:50 40.78692 -111.99251 4231 ft 10 kts
2026-05-05 01:50 40.78772 -111.99259 4231 ft 13 kts 355°
2026-05-05 01:51 40.78867 -111.99270 4231 ft 15 kts 355°
2026-05-05 01:51 40.78959 -111.99280 4229 ft 10 kts 358°
2026-05-05 01:51 40.78994 -111.99229 4231 ft 9 kts 75°
2026-05-05 01:51 40.79001 -111.99140 4231 ft 11 kts 86°
2026-05-05 01:52 40.79007 -111.99045 4231 ft 8 kts 85°
2026-05-05 01:52 40.78997 -111.99018 4231 ft 3 kts 140°
2026-05-05 01:52 40.78967 -111.99006 4231 ft 5 kts 172°
2026-05-05 01:52 40.78947 -111.99004 4231 ft 3 kts 176°
2026-05-05 01:53 40.78936 -111.99003 4231 ft 1 kts 175°
2026-05-05 01:53 40.78933 -111.99003 4231 ft 0 kts 175°